Location: Unspecified
(0.0000°N, 0.0000°E)
Time: 18:01:51
(UTC+00:00)

Vanguard 1 - Pass Details

Date: 05 October 2020
Orbit: 650 x 3833 km, 34.3° (Epoch: 26 October)

Event Time Altitude Azimuth Distance (km) Brightness Sun altitude
Rises 05:34:56 0° 274° (W) 3,832 - -3.3°
Exits shadow 05:35:48 - 270° (W) 3,595 12.3 -3.1°
Reaches altitude 10° 05:37:31 10° 262° (W) 3,174 12.0 -2.7°
Maximum altitude 05:44:33 31° 203° (SSW) 2,717 12.2 -1.0°
Drops below altitude 10° 05:56:12 10° 147° (SSE) 5,312 14.4 2.0°
Sets 06:02:18 0° 138° (SE) 6,886 15.2 3.5°
